When you browse on this site, cookies collect data to enhance your experience and personalize the content and advertising you see.
Visit our Privacy Policy to learn more. By continuing to use the site, you agree to this use of cookies and data.
  • In Czech Republic
  • List of Countries
  • For 7 days
  • Water Temperature
  • Weather Map
  • Weather Widgets
  • user-avatar
    Login

    Hourly Weather Le Creusot

    Today, 6 June, Saturday

    Time Temperature Precipitation Wind Pressure Humidity
    00:00 +12°C° 0 mm 3 mps 719 mmHg 93%
    01:00 +12°C° 0.2 mm 3 mps 719 mmHg 94%
    02:00 +12°C° 0.2 mm 3 mps 719 mmHg 94%
    03:00 +12°C° 0.2 mm 3 mps 719 mmHg 95%
    04:00 +12°C° 0.2 mm 3 mps 719 mmHg 95%
    05:00 +12°C° 0.2 mm 3 mps 719 mmHg 96%
    06:00 +13°C° 0 mm 2 mps 719 mmHg 95%
    07:00 +12°C° 0.1 mm 3 mps 720 mmHg 94%
    08:00 +12°C° 0.1 mm 3 mps 720 mmHg 93%
    09:00 +13°C° 0.1 mm 3 mps 720 mmHg 92%
    10:00 +13°C° 0.2 mm 3 mps 720 mmHg 92%
    11:00 +13°C° 0.2 mm 3 mps 720 mmHg 91%
    12:00 +14°C° 0 mm 3 mps 720 mmHg 89%
    13:00 +13°C° 0.2 mm 3 mps 720 mmHg 91%
    14:00 +13°C° 0.2 mm 3 mps 720 mmHg 92%
    15:00 +13°C° 0.2 mm 3 mps 719 mmHg 94%
    16:00 +13°C° 0.1 mm 2 mps 719 mmHg 94%
    17:00 +13°C° 0.1 mm 2 mps 719 mmHg 94%
    18:00 +13°C° 0.1 mm 2 mps 719 mmHg 94%
    19:00 +13°C° 0.2 mm 1 mps 720 mmHg 95%
    20:00 +12°C° 0.2 mm 1 mps 720 mmHg 97%
    21:00 +12°C° 0.2 mm 1 mps 720 mmHg 98%
    22:00 +12°C° 0.6 mm 1 mps 720 mmHg 98%
    23:00 +11°C° 0.6 mm 1 mps 720 mmHg 98%

    Tomorrow, 7 June, Sunday

    Time Temperature Precipitation Wind Pressure Humidity
    00:00 +11°C° 0.6 mm 1 mps 720 mmHg 98%
    01:00 +10°C° 0.3 mm 1 mps 720 mmHg 98%
    02:00 +10°C° 0.3 mm 1 mps 720 mmHg 97%
    03:00 +9°C° 0.3 mm 1 mps 720 mmHg 97%
    04:00 +9°C° 0 mm 1 mps 721 mmHg 97%
    05:00 +9°C° 0 mm 1 mps 721 mmHg 96%
    06:00 +10°C° 0 mm 1 mps 721 mmHg 95%
    07:00 +11°C° 0 mm 1 mps 722 mmHg 83%
    08:00 +13°C° 0 mm 1 mps 722 mmHg 71%
    09:00 +14°C° 0 mm 2 mps 722 mmHg 59%
    10:00 +15°C° 0 mm 2 mps 723 mmHg 54%
    11:00 +16°C° 0 mm 1 mps 723 mmHg 48%
    12:00 +19°C° 0 mm 1 mps 723 mmHg 43%
    13:00 +18°C° 0 mm 1 mps 723 mmHg 46%
    14:00 +18°C° 0 mm 1 mps 723 mmHg 48%
    15:00 +17°C° 0 mm 2 mps 722 mmHg 51%
    16:00 +18°C° 0 mm 1 mps 722 mmHg 58%
    17:00 +16°C° 0 mm 1 mps 722 mmHg 64%
    18:00 +15°C° 0 mm 1 mps 722 mmHg 71%
    19:00 +13°C° 0 mm 1 mps 723 mmHg 77%
    20:00 +11°C° 0 mm 1 mps 723 mmHg 83%
    21:00 +9°C° 0 mm 1 mps 723 mmHg 88%
    22:00 +9°C° 0 mm 1 mps 723 mmHg 90%
    23:00 +8°C° 0 mm 0 mps 723 mmHg 92%

    Day after tomorrow, 8 June, Monday

    Time Temperature Precipitation Wind Pressure Humidity
    00:00 +7°C° 0 mm 0 mps 723 mmHg 94%
    01:00 +7°C° 0 mm 0 mps 723 mmHg 94%
    02:00 +6°C° 0 mm 0 mps 723 mmHg 95%
    03:00 +6°C° 0 mm 0 mps 723 mmHg 95%
    04:00 +7°C° 0 mm 0 mps 723 mmHg 92%
    05:00 +8°C° 0 mm 0 mps 723 mmHg 89%
    06:00 +11°C° 0 mm 1 mps 723 mmHg 86%
    07:00 +12°C° 0.1 mm 1 mps 724 mmHg 80%
    08:00 +14°C° 0.1 mm 1 mps 724 mmHg 74%
    09:00 +16°C° 0.1 mm 1 mps 724 mmHg 68%
    10:00 +18°C° 0.4 mm 1 mps 724 mmHg 68%
    11:00 +18°C° 0.4 mm 1 mps 723 mmHg 67%
    12:00 +19°C° 0.4 mm 1 mps 723 mmHg 67%
    13:00 +18°C° 0.4 mm 2 mps 723 mmHg 69%
    14:00 +18°C° 0.4 mm 2 mps 723 mmHg 72%
    15:00 +18°C° 0.4 mm 3 mps 723 mmHg 74%
    16:00 +17°C° 0.5 mm 2 mps 723 mmHg 79%
    17:00 +16°C° 0.5 mm 2 mps 723 mmHg 84%
    18:00 +16°C° 0.5 mm 2 mps 723 mmHg 89%
    19:00 +14°C° 0.3 mm 2 mps 723 mmHg 91%
    20:00 +13°C° 0.3 mm 1 mps 724 mmHg 93%
    21:00 +11°C° 0.3 mm 1 mps 724 mmHg 95%
    22:00 +11°C° 0 mm 1 mps 724 mmHg 95%
    23:00 +10°C° 0 mm 1 mps 724 mmHg 96%

    9 June, Tuesday

    Time Temperature Precipitation Wind Pressure Humidity
    00:00 +10°C° 0 mm 1 mps 724 mmHg 96%
    01:00 +10°C° 0 mm 1 mps 724 mmHg 97%
    02:00 +9°C° 0 mm 1 mps 724 mmHg 97%
    03:00 +9°C° 0 mm 1 mps 724 mmHg 97%
    04:00 +10°C° 0.1 mm 1 mps 724 mmHg 97%
    05:00 +10°C° 0.1 mm 1 mps 725 mmHg 97%
    06:00 +10°C° 0.1 mm 2 mps 725 mmHg 97%
    07:00 +12°C° 0 mm 2 mps 725 mmHg 95%
    08:00 +12°C° 0 mm 2 mps 726 mmHg 92%
    09:00 +13°C° 0 mm 2 mps 726 mmHg 89%
    10:00 +14°C° 0.3 mm 2 mps 726 mmHg 86%
    11:00 +15°C° 0.3 mm 2 mps 726 mmHg 83%
    12:00 +16°C° 0.3 mm 2 mps 726 mmHg 80%
    13:00 +16°C° 0.9 mm 2 mps 726 mmHg 84%
    14:00 +15°C° 0.9 mm 2 mps 726 mmHg 87%
    15:00 +15°C° 0.9 mm 2 mps 726 mmHg 91%
    16:00 +14°C° 0.8 mm 2 mps 726 mmHg 93%
    17:00 +14°C° 0.8 mm 1 mps 726 mmHg 95%
    18:00 +13°C° 0.8 mm 1 mps 726 mmHg 96%
    19:00 +13°C° 0.2 mm 1 mps 726 mmHg 97%
    20:00 +13°C° 0.2 mm 1 mps 726 mmHg 97%
    21:00 +12°C° 0.2 mm 1 mps 727 mmHg 97%
    22:00 +12°C° 0.1 mm 1 mps 726 mmHg 97%
    23:00 +12°C° 0.1 mm 1 mps 726 mmHg 97%

    10 June, Wednesday

    Time Temperature Precipitation Wind Pressure Humidity
    00:00 +12°C° 0.1 mm 1 mps 726 mmHg 98%
    01:00 +12°C° 0 mm 1 mps 726 mmHg 98%
    02:00 +12°C° 0 mm 1 mps 726 mmHg 98%
    03:00 +12°C° 0 mm 1 mps 726 mmHg 98%
    04:00 +12°C° 0 mm 1 mps 726 mmHg 98%
    05:00 +12°C° 0 mm 1 mps 726 mmHg 98%
    06:00 +12°C° 0 mm 1 mps 726 mmHg 97%
    07:00 +13°C° 0 mm 1 mps 726 mmHg 96%
    08:00 +13°C° 0 mm 2 mps 726 mmHg 95%
    09:00 +13°C° 0 mm 2 mps 726 mmHg 94%
    10:00 +14°C° 0.4 mm 2 mps 726 mmHg 92%
    11:00 +14°C° 0.4 mm 2 mps 726 mmHg 90%
    12:00 +15°C° 0.4 mm 2 mps 726 mmHg 88%
    13:00 +15°C° 0.4 mm 2 mps 726 mmHg 86%
    14:00 +16°C° 0.4 mm 2 mps 725 mmHg 85%
    15:00 +16°C° 0.4 mm 2 mps 725 mmHg 83%
    16:00 +16°C° 0.4 mm 2 mps 725 mmHg 85%
    17:00 +16°C° 0.4 mm 2 mps 725 mmHg 87%
    18:00 +16°C° 0.4 mm 2 mps 725 mmHg 89%
    19:00 +14°C° 0.1 mm 1 mps 725 mmHg 91%
    20:00 +13°C° 0.1 mm 1 mps 725 mmHg 93%
    21:00 +12°C° 0.1 mm 1 mps 725 mmHg 95%
    22:00 +11°C° 0 mm 1 mps 725 mmHg 96%
    23:00 +11°C° 0 mm 1 mps 725 mmHg 96%

    11 June, Thursday

    Time Temperature Precipitation Wind Pressure Humidity
    00:00 +10°C° 0 mm 1 mps 725 mmHg 96%
    01:00 +10°C° 0 mm 1 mps 724 mmHg 96%
    02:00 +9°C° 0 mm 1 mps 724 mmHg 96%
    03:00 +9°C° 0 mm 1 mps 724 mmHg 96%
    04:00 +9°C° 0 mm 1 mps 724 mmHg 95%
    05:00 +10°C° 0 mm 1 mps 723 mmHg 94%
    06:00 +10°C° 0 mm 1 mps 723 mmHg 93%
    07:00 +12°C° 0 mm 1 mps 723 mmHg 83%
    08:00 +15°C° 0 mm 2 mps 723 mmHg 72%
    09:00 +17°C° 0 mm 2 mps 723 mmHg 61%
    10:00 +18°C° 0 mm 2 mps 722 mmHg 57%
    11:00 +19°C° 0 mm 2 mps 721 mmHg 52%
    12:00 +20°C° 0 mm 3 mps 721 mmHg 48%
    13:00 +20°C° 0 mm 3 mps 720 mmHg 50%
    14:00 +20°C° 0 mm 3 mps 720 mmHg 52%
    15:00 +20°C° 0 mm 3 mps 719 mmHg 54%
    16:00 +19°C° 0.1 mm 2 mps 719 mmHg 62%
    17:00 +17°C° 0.1 mm 2 mps 719 mmHg 69%
    18:00 +16°C° 0.1 mm 2 mps 719 mmHg 77%
    19:00 +15°C° 0.5 mm 2 mps 719 mmHg 83%
    20:00 +12°C° 0.5 mm 3 mps 719 mmHg 89%
    21:00 +11°C° 0.5 mm 4 mps 720 mmHg 94%
    22:00 +10°C° 0 mm 3 mps 720 mmHg 94%
    23:00 +9°C° 0 mm 3 mps 720 mmHg 94%
    Show more